星链-4416 (STARLINK-4416 )

导读

STARLINK-4416是美国太空探索技术公司Starlink星链互联网卫星星座的成员,于2022年7月22日发射升空,属于星链计划的第二批组网卫星。它承载低轨宽带互联网传输任务,依托低轨道部署优势提供覆盖全球的互联网接入服务,目前在轨运行,服务全球各类用户的通信与网络接入需求。

基本信息
目录编号:
53212
目录名称:
STARLINK-4416
国际标识:
2022-084Z
轨道中心:
EARTH
卫星名称:
星链-4416
卫星全名:
星链-4416 (STARLINK-4416 )
卫星状态:
在轨 (已飞行1426 天)
发射日期:
2022-07-22 UTC
国别 :
美国 (US)
星等 :
--
轨道信息
数据来源 国际轨道数据 AOE轨道数据
星历时间 2026-06-17T09:33:22+0800
8小时前
查看轨道信息
2026-06-17T00:00:00+0800
18小时前
查看轨道信息
半长轴 6927.641km 6927.626km
偏心率 0.0000444 0.0001755
轨道倾角 97.356° 97.352°
近地点辐角 143.560° 114.321°
升交点赤经 228.191° 227.813°
平近点角 216.566° 248.967°
近地点 549.196km 548.273km
远地点 549.812km 550.705km
周期 95.640分钟 95.639分钟
每日圈数 15.056524 15.056573
详细信息
固有亮度:
5
最大亮度:
2.5
卫星平台:
Starlink v1.5
覆盖范围:
全球
运营商:
太空探索技术公司
运营商所在国:
美国
制造商(研发单位):
太空探索技术公司
制造商所在国:
美国
使用方式:
暂无
卫星简介
星链(Starlink)计划是由太空探索技术公司(SpaceX)提出的一个巨型低轨卫星互联网星座项目,计划在2019年至2024年间在太空搭建由约1.2万颗卫星组成的“星链”网络,其中1584颗将部署在地球上空550千米处的近地轨道,并从2020年开始工作。该卫星仍在工作。
2D轨道图
3D轨道图
轨道高度分析图
轨道倾角分析图
轨道综合分析图
查看轨道综合分析图